Hourly Data Report for May 14, 2018

CLYDE RIVER A
NUNAVUT
Current Station Operator: NAVCAN

70°29'09.000" N
68°31'01.000" W
26.50 m
2400804
71090
YCY

Download Data

Hourly Data (May 2018)
Hourly Data Report for May 14, 2018
TIME
LST
Temp Definition
°C
Dew Point Definition
°C
Rel Hum Definition
%
Precip. Amount Definition
mm

Wind Dir Definition
10's deg

Wind Spd Definition
km/h
Visibility Definition
km
Stn Press Definition
kPa
Hmdx Definition


Wind Chill Definition


Weather Definition


00:00 -9.9 -11.5 88 0.0 32 41 4.8 100.16   -21 Snow
01:00 -9.8 -11.4 88 0.0 32 37 8.1 100.19   -20 Fog
02:00 -9.7 -11.2 89 0.0 32 37 12.9 100.19   -20 Snow
03:00 -9.6 -11.2 88 0.0 31 30 16.1 100.16   -19 Snow
04:00 -8.9 -10.5 88 0.0 31 34 6.4 100.13   -19 Snow
05:00 -8.5 -10.7 84 0.0 30 45 2.8 100.12   -19 Snow
06:00 -7.9 -10.0 85 0.0 31 48 2.4 100.05   -19 Snow
07:00 -7.3 -10.2 80 0.0 30 39 12.9 100.05   -17 LegendNANA
08:00 -6.6 -9.9 77 0.0 31 45 11.3 100.05   -17 LegendNANA
09:00 -6.0 -9.0 79 0.0 31 46 3.6 100.01   -16 Haze
10:00 -5.7 -8.3 82 0.0 31 48 4.8 99.98   -16 Fog
11:00 -5.9 -8.1 85 0.0 32 48 2.8 99.98   -16 Fog
12:00 -5.4 -7.4 86 0.0 32 50 2.0 99.95   -16 Fog
13:00 -5.0 -6.7 88 0.0 33 48 2.4 99.98   -15 Fog
14:00 -4.5 -6.4 87 0.0 32 48 3.6 100.01   -14 Fog
15:00 -4.1 -6.0 87 0.0 32 45 6.4 100.03   -13 Fog
16:00 -4.1 -5.8 88 0.0 32 43 6.4 100.08   -13 Fog
17:00 -4.0 -5.7 88 0.0 31 39 9.7 100.12   -13 Fog
18:00 -4.2 -5.6 90 0.0 30 35 16.1 100.15   -13 LegendNANA
19:00 -3.8 -5.2 90 0.0 31 37 16.1 100.19   -12 LegendNANA
20:00 -3.8 -5.4 89 0.0 30 32 16.1 100.20   -12 LegendNANA
21:00 -4.6 -5.9 91 0.0 31 41 14.5 100.18   -14 LegendNANA
22:00 -5.0 -6.1 92 0.0 32 37 12.9 100.20   -14 LegendNANA
23:00 -5.0 -6.1 92 0.0 31 34 4.8 100.22   -13 Fog

Notes on Data Quality.

Legend

  • E = Estimated
  • M = Missing
  • NA = Not Available*
  • [empty] = Indicates an unobserved value
Date modified: